Location: Dodgeville, WI 53533, USA
(43.0344°N, 90.0900°W)
Time: 09:24:07
(UTC-06:00)

BlueWalker 3 - Pass Details

Date: 16 November 2025
Orbit: 455 x 462 km, 53.2° (Epoch: 11 December)

Event Time Altitude Azimuth Distance (km) Brightness Sun altitude
Rises 17:58:01 0° 181° (S) 2,471 5.6 -15.1°
Reaches altitude 10° 18:01:27 10° 146° (SE) 1,605 4.3 -15.7°
Enters shadow 18:01:42 11° 142° (SE) 1,577 4.2 -15.8°
